Location: Gwatt
(46.7204°N, 7.6223°E)
Time: 08:33:48
(UTC+00:00)

Vanguard 3 - Pass Details

Date: 27 January 2021
Orbit: 508 x 3261 km, 33.3° (Epoch: 24 February)

Event Time Altitude Azimuth Distance (km) Brightness Sun altitude
Exits shadow 04:54:38 20° 230° (SW) 2,578 9.3 -21.3°
Maximum altitude 04:59:24 35° 180° (S) 2,381 9.5 -20.5°
Drops below altitude 10° 05:10:40 10° 122° (ESE) 4,984 12.1 -18.6°
Sets 05:15:56 0° 115° (ESE) 6,422 13.2 -17.7°
